User: anonymous   Login
Location: Acheville
(50.3840°N, 2.8827°E)
Time: 07:32:20
(UTC+00:00)
Language:

FENGYUN 1C DEB - Orbit

View from above orbital plane
View from above orbital plane
View from above satellite
View from above satellite

Ground track
Ground track

The orbit data is extracted from the following two-line orbital elements,

1 30088U 99025QR  24063.76472972  .00002554  00000-0  74895-3 0  9995
2 30088  98.3123  64.9331 0211488  24.4875  26.8002 14.32488979893695
Epoch (UTC): 03 March 2024 18:21:12
Eccentricity: 0.0211488
inclination: 98.3123°
perigee height: 632 km
apogee height: 935 km
right ascension of ascending node: 64.9331°
argument of perigee: 24.4875°
revolutions per day: 14.32488979
mean anomaly at epoch: 26.8002°
orbit number at epoch: 89369

The dashed part of the orbit path shows where the satellite is in the earth's shadow,  

DLR